| time (UTC) | temp C | wind direction | speed KPH | gust KPH | rain 1hr cm | rain 24hr cm | rain mn cm | humidity % | barometer mb |
| 20260510095522 | 13 | 296 | 14.5 | 25.7 | 0.00 | 0.61 | 0.30 | 98 | 1016.8 |
| 20260510094523 | 13 | 299 | 12.9 | 24.1 | 0.00 | 0.61 | 0.30 | 98 | 1016.9 |
| 20260510093523 | 13 | 293 | 9.7 | 17.7 | 0.00 | 0.61 | 0.30 | 99 | 1016.8 |
| 20260510092523 | 13 | 301 | 8.0 | 14.5 | 0.00 | 0.61 | 0.30 | 99 | 1016.8 |
| 20260510091603 | 13 | 313 | 11.3 | 19.3 | 0.00 | 0.61 | 0.30 | 99 | 1016.9 |
| 20260510090522 | 12 | 308 | 11.3 | 22.5 | 0.00 | 0.61 | 0.30 | 99 | 1016.9 |
| 20260510085523 | 12 | 305 | 12.9 | 22.5 | 0.03 | 0.61 | 0.30 | 99 | 1016.9 |
| 20260510084542 | 12 | 302 | 11.3 | 20.9 | 0.03 | 0.61 | 0.30 | 99 | 1016.9 |
| 20260510083523 | 12 | 307 | 11.3 | 17.7 | 0.05 | 0.61 | 0.30 | 99 | 1016.9 |
| 20260510082522 | 12 | 303 | 11.3 | 17.7 | 0.05 | 0.61 | 0.30 | 99 | 1016.8 |
| 20260510081522 | 13 | 321 | 4.8 | 12.9 | 0.05 | 0.61 | 0.30 | 99 | 1016.8 |
| 20260510080542 | 12 | 299 | 6.4 | 14.5 | 0.05 | 0.61 | 0.30 | 99 | 1016.9 |
| 20260510075522 | 12 | 293 | 6.4 | 14.5 | 0.05 | 0.58 | 0.28 | 99 | 1016.8 |
| 20260510074523 | 12 | 300 | 12.9 | 22.5 | 0.05 | 0.58 | 0.28 | 99 | 1016.8 |
| 20260510073522 | 12 | 305 | 9.7 | 22.5 | 0.05 | 0.56 | 0.25 | 99 | 1016.8 |
| 20260510072522 | 12 | 299 | 9.7 | 24.1 | 0.05 | 0.56 | 0.25 | 99 | 1016.8 |
| 20260510071523 | 12 | 298 | 11.3 | 25.7 | 0.08 | 0.56 | 0.25 | 99 | 1016.7 |
| 20260510070523 | 12 | 311 | 12.9 | 20.9 | 0.08 | 0.56 | 0.25 | 99 | 1016.8 |
| 20260510065522 | 12 | 310 | 14.5 | 24.1 | 0.08 | 0.53 | 0.23 | 99 | 1016.8 |
| 20260510064523 | 12 | 314 | 16.1 | 25.7 | 0.08 | 0.53 | 0.23 | 99 | 1016.8 |
| 20260510063542 | 12 | 307 | 17.7 | 25.7 | 0.05 | 0.51 | 0.20 | 99 | 1016.8 |
| 20260510062523 | 12 | 303 | 12.9 | 25.7 | 0.05 | 0.51 | 0.20 | 99 | 1016.8 |
| 20260510061523 | 12 | 309 | 16.1 | 25.7 | 0.03 | 0.48 | 0.18 | 99 | 1016.7 |
| 20260510060523 | 12 | 303 | 12.9 | 27.4 | 0.03 | 0.48 | 0.18 | 99 | 1016.7 |
| 20260510055523 | 12 | 310 | 14.5 | 27.4 | 0.00 | 0.46 | 0.15 | 99 | 1016.6 |
| 20260510054603 | 12 | 312 | 12.9 | 25.7 | 0.00 | 0.46 | 0.15 | 99 | 1016.6 |
| 20260510053603 | 12 | 312 | 14.5 | 27.4 | 0.00 | 0.46 | 0.15 | 99 | 1016.6 |
| 20260510052523 | 12 | 318 | 12.9 | 20.9 | 0.03 | 0.46 | 0.15 | 99 | 1016.6 |
| 20260510051522 | 12 | 302 | 11.3 | 22.5 | 0.03 | 0.46 | 0.15 | 99 | 1016.5 |
| 20260510050548 | 12 | 299 | 16.1 | 24.1 | 0.03 | 0.46 | 0.15 | 99 | 1016.5 |
| 20260510045521 | 12 | 300 | 11.3 | 24.1 | 0.03 | 0.46 | 0.15 | 99 | 1016.5 |
| 20260510044523 | 12 | 307 | 11.3 | 22.5 | 0.03 | 0.46 | 0.15 | 99 | 1016.4 |
| 20260510043521 | 12 | 313 | 4.8 | 12.9 | 0.03 | 0.46 | 0.15 | 99 | 1016.3 |
| 20260510042548 | 12 | 326 | 4.8 | 9.7 | 0.00 | 0.43 | 0.13 | 99 | 1016.3 |
| 20260510041523 | 12 | 328 | 4.8 | 11.3 | 0.03 | 0.43 | 0.13 | 99 | 1016.3 |
| 20260510040525 | 12 | 316 | 6.4 | 14.5 | 0.03 | 0.43 | 0.13 | 99 | 1016.2 |
| 20260510035523 | 12 | 327 | 4.8 | 14.5 | 0.03 | 0.43 | 0.13 | 100 | 1016.2 |
| 20260510034523 | 12 | 333 | 6.4 | 17.7 | 0.05 | 0.43 | 0.13 | 100 | 1016.2 |
| 20260510033523 | 12 | 330 | 4.8 | 8.0 | 0.05 | 0.43 | 0.13 | 99 | 1016.1 |
| 20260510032523 | 12 | 333 | 3.2 | 12.9 | 0.08 | 0.43 | 0.13 | 99 | 1016.0 |
| 20260510031523 | 12 | 337 | 3.2 | 4.8 | 0.05 | 0.41 | 0.10 | 99 | 1016.1 |
| 20260510030523 | 12 | 6 | 4.8 | 11.3 | 0.05 | 0.43 | 0.10 | 99 | 1016.1 |
| 20260510025524 | 12 | 335 | 4.8 | 16.1 | 0.08 | 0.43 | 0.10 | 99 | 1016.1 |
| 20260510024522 | 12 | 334 | 3.2 | 4.8 | 0.05 | 0.41 | 0.08 | 99 | 1016.0 |
| 20260510023543 | 12 | 352 | 4.8 | 9.7 | 0.05 | 0.41 | 0.08 | 99 | 1016.0 |
| 20260510022543 | 12 | 324 | 3.2 | 9.7 | 0.03 | 0.38 | 0.05 | 99 | 1016.0 |
| 20260510021523 | 12 | 337 | 4.8 | 9.7 | 0.03 | 0.38 | 0.05 | 99 | 1016.0 |
| 20260510020523 | 12 | 54 | 3.2 | 9.7 | 0.03 | 0.38 | 0.05 | 99 | 1016.0 |
| 20260510015530 | 13 | 342 | 3.2 | 9.7 | 0.00 | 0.36 | 0.03 | 99 | 1016.0 |
| 20260510014537 | 13 | 340 | 3.2 | 14.5 | 0.00 | 0.36 | 0.03 | 99 | 1016.1 |
| 20260510013523 | 13 | 342 | 4.8 | 8.0 | 0.00 | 0.36 | 0.03 | 99 | 1016.1 |
| 20260510012544 | 13 | 348 | 3.2 | 11.3 | 0.00 | 0.36 | 0.03 | 99 | 1016.1 |
| 20260510011523 | 13 | 341 | 3.2 | 11.3 | 0.00 | 0.36 | 0.03 | 99 | 1016.2 |
| 20260510010524 | 13 | 336 | 3.2 | 4.8 | 0.00 | 0.36 | 0.03 | 99 | 1016.2 |
| 20260510005523 | 13 | 330 | 3.2 | 4.8 | 0.00 | 0.36 | 0.03 | 99 | 1016.2 |
| 20260510004523 | 13 | 334 | 3.2 | 6.4 | 0.00 | 0.36 | 0.03 | 99 | 1016.2 |
| 20260510003520 | 13 | 351 | 3.2 | 3.2 | 0.00 | 0.36 | 0.03 | 99 | 1016.2 |
| 20260510002543 | 13 | 349 | 4.8 | 9.7 | 0.00 | 0.36 | 0.03 | 99 | 1016.3 |
| 20260510001524 | 13 | 345 | 3.2 | 9.7 | 0.00 | 0.36 | 0.03 | 99 | 1016.2 |
| 20260510000543 | 13 | 352 | 3.2 | 11.3 | 0.00 | 0.36 | 0.03 | 99 | 1016.3 |
| 20260509235523 | 13 | 341 | 4.8 | 9.7 | 0.00 | 0.36 | 0.03 | 99 | 1016.4 |
| 20260509234523 | 13 | 355 | 6.4 | 12.9 | 0.00 | 0.36 | 0.03 | 99 | 1016.4 |
| 20260509233523 | 13 | 341 | 4.8 | 11.3 | 0.00 | 0.36 | 0.03 | 99 | 1016.5 |
| 20260509232524 | 13 | 356 | 3.2 | 8.0 | 0.00 | 0.36 | 0.03 | 99 | 1016.6 |
| 20260509231540 | 13 | 341 | 3.2 | 6.4 | 0.00 | 0.36 | 0.03 | 99 | 1016.7 |
| 20260509230524 | 13 | 344 | 3.2 | 4.8 | 0.00 | 0.36 | 0.03 | 99 | 1016.8 |
| 20260509225523 | 13 | 333 | 3.2 | 8.0 | 0.00 | 0.36 | 0.03 | 99 | 1016.8 |
| 20260509224523 | 13 | 339 | 4.8 | 12.9 | 0.00 | 0.36 | 0.03 | 99 | 1016.9 |
| 20260509223523 | 13 | 2 | 3.2 | 9.7 | 0.00 | 0.36 | 0.03 | 99 | 1016.9 |
| 20260509222524 | 13 | 336 | 4.8 | 11.3 | 0.03 | 0.36 | 0.03 | 99 | 1017.0 |
| 20260509221523 | 13 | 354 | 3.2 | 12.9 | 0.03 | 0.36 | 0.03 | 99 | 1017.1 |
| 20260509220603 | 13 | 11 | 3.2 | 8.0 | 0.03 | 0.36 | 0.03 | 98 | 1017.1 |
| 20260509215523 | 13 | 350 | 4.8 | 9.7 | 0.03 | 0.36 | 0.03 | 98 | 1017.2 |
| 20260509214522 | 13 | 341 | 3.2 | 11.3 | 0.03 | 0.36 | 0.03 | 98 | 1017.2 |
| 20260509213543 | 13 | 342 | 3.2 | 6.4 | 0.03 | 0.36 | 0.03 | 98 | 1017.3 |
| 20260509212523 | 13 | 339 | 3.2 | 8.0 | 0.00 | 0.33 | 0.00 | 98 | 1017.2 |
| 20260509211558 | 13 | 339 | 3.2 | 6.4 | 0.00 | 0.33 | 0.00 | 98 | 1017.2 |
| 20260509210523 | 13 | 328 | 3.2 | 9.7 | 0.00 | 0.33 | 0.00 | 98 | 1017.3 |
| 20260509205523 | 13 | 336 | 6.4 | 11.3 | 0.00 | 0.33 | 0.33 | 97 | 1017.2 |
| 20260509204523 | 13 | 337 | 4.8 | 11.3 | 0.00 | 0.33 | 0.33 | 97 | 1017.3 |
| 20260509203522 | 13 | 335 | 4.8 | 12.9 | 0.05 | 0.33 | 0.33 | 97 | 1017.3 |
| 20260509202542 | 13 | 328 | 3.2 | 8.0 | 0.15 | 0.33 | 0.33 | 97 | 1017.2 |
| 20260509201521 | 13 | 334 | 3.2 | 8.0 | 0.20 | 0.33 | 0.33 | 97 | 1017.3 |
| 20260509200521 | 13 | 352 | 4.8 | 9.7 | 0.25 | 0.33 | 0.33 | 97 | 1017.2 |
| 20260509195522 | 13 | 343 | 3.2 | 6.4 | 0.28 | 0.33 | 0.33 | 96 | 1017.2 |
| 20260509194522 | 14 | 337 | 6.4 | 16.1 | 0.30 | 0.33 | 0.33 | 96 | 1017.1 |
| 20260509193521 | 14 | 331 | 8.0 | 14.5 | 0.25 | 0.28 | 0.28 | 96 | 1017.1 |
| 20260509192522 | 14 | 328 | 4.8 | 9.7 | 0.15 | 0.18 | 0.18 | 96 | 1017.1 |
| 20260509191541 | 14 | 332 | 3.2 | 8.0 | 0.10 | 0.13 | 0.13 | 95 | 1017.2 |
| 20260509190521 | 14 | 347 | 3.2 | 9.7 | 0.05 | 0.08 | 0.08 | 95 | 1017.2 |
| 20260509185541 | 14 | 351 | 3.2 | 3.2 | 0.03 | 0.05 | 0.05 | 94 | 1017.1 |
| 20260509184520 | 15 | 338 | 3.2 | 6.4 | 0.00 | 0.03 | 0.03 | 94 | 1017.0 |
| 20260509183521 | 15 | 328 | 3.2 | 4.8 | 0.00 | 0.03 | 0.03 | 94 | 1016.9 |
| 20260509182521 | 15 | 332 | 3.2 | 6.4 | 0.00 | 0.03 | 0.03 | 94 | 1016.8 |
| 20260509181540 | 15 | 333 | 3.2 | 9.7 | 0.00 | 0.03 | 0.03 | 94 | 1016.8 |
| 20260509180521 | 15 | 333 | 3.2 | 3.2 | 0.00 | 0.03 | 0.03 | 93 | 1016.7 |
| 20260509175541 | 15 | 337 | 3.2 | 4.8 | 0.00 | 0.03 | 0.03 | 93 | 1016.6 |
| 20260509174520 | 15 | 330 | 3.2 | 4.8 | 0.00 | 0.03 | 0.03 | 93 | 1016.4 |
| 20260509173521 | 16 | 345 | 3.2 | 4.8 | 0.00 | 0.03 | 0.03 | 92 | 1016.4 |
| 20260509172520 | 16 | 343 | 3.2 | 3.2 | 0.00 | 0.03 | 0.03 | 91 | 1016.4 |
| 20260509171520 | 17 | 1 | 3.2 | 6.4 | 0.00 | 0.03 | 0.03 | 91 | 1016.3 |
| 20260509170541 | 17 | 355 | 3.2 | 4.8 | 0.00 | 0.03 | 0.03 | 90 | 1016.2 |
| 20260509165520 | 17 | 347 | 1.6 | 3.2 | 0.00 | 0.03 | 0.03 | 88 | 1016.2 |
| 20260509164520 | 17 | 346 | 1.6 | 1.6 | 0.00 | 0.03 | 0.03 | 87 | 1016.1 |
| 20260509163519 | 17 | 343 | 1.6 | 6.4 | 0.00 | 0.03 | 0.03 | 86 | 1016.1 |
| 20260509162519 | 17 | 348 | 1.6 | 1.6 | 0.00 | 0.03 | 0.03 | 86 | 1016.1 |
| 20260509161519 | 17 | 345 | 1.6 | 3.2 | 0.00 | 0.03 | 0.03 | 86 | 1016.1 |
| 20260509160539 | 17 | 8 | 1.6 | 1.6 | 0.00 | 0.03 | 0.03 | 86 | 1016.1 |
| 20260509155519 | 17 | 359 | 1.6 | 1.6 | 0.00 | 0.03 | 0.03 | 86 | 1016.1 |
| 20260509154519 | 17 | 29 | 1.6 | 3.2 | 0.00 | 0.03 | 0.03 | 85 | 1016.0 |
| 20260509153519 | 17 | 25 | 1.6 | 3.2 | 0.00 | 0.03 | 0.03 | 85 | 1016.1 |
| 20260509152539 | 17 | 22 | 1.6 | 3.2 | 0.00 | 0.03 | 0.03 | 85 | 1016.1 |
| 20260509151519 | 17 | 27 | 1.6 | 3.2 | 0.00 | 0.03 | 0.03 | 84 | 1016.1 |
| 20260509150519 | 17 | 12 | 1.6 | 3.2 | 0.00 | 0.03 | 0.03 | 83 | 1016.2 |
| 20260509145519 | 17 | 17 | 1.6 | 3.2 | 0.00 | 0.03 | 0.03 | 83 | 1016.2 |
| 20260509144519 | 17 | 30 | 1.6 | 3.2 | 0.00 | 0.03 | 0.03 | 83 | 1016.3 |
| 20260509143519 | 17 | 38 | 3.2 | 4.8 | 0.00 | 0.03 | 0.03 | 83 | 1016.3 |
| 20260509142518 | 18 | 40 | 3.2 | 6.4 | 0.00 | 0.03 | 0.03 | 81 | 1016.3 |
| 20260509141519 | 18 | 49 | 1.6 | 1.6 | 0.00 | 0.03 | 0.03 | 82 | 1016.4 |
| 20260509140541 | 18 | 31 | 1.6 | 1.6 | 0.00 | 0.03 | 0.03 | 82 | 1016.4 |
| 20260509135518 | 18 | 48 | 1.6 | 3.2 | 0.00 | 0.05 | 0.03 | 82 | 1016.4 |
| 20260509134519 | 18 | 38 | 1.6 | 3.2 | 0.00 | 0.08 | 0.03 | 83 | 1016.5 |
| 20260509133518 | 17 | 41 | 1.6 | 4.8 | 0.00 | 0.23 | 0.03 | 83 | 1016.5 |
| 20260509132518 | 17 | 57 | 1.6 | 1.6 | 0.00 | 0.56 | 0.03 | 84 | 1016.6 |
| 20260509131518 | 18 | 47 | 1.6 | 3.2 | 0.00 | 1.12 | 0.03 | 83 | 1016.7 |
| 20260509130518 | 18 | 46 | 1.6 | 4.8 | 0.00 | 1.12 | 0.03 | 82 | 1016.8 |
| 20260509125518 | 18 | 54 | 1.6 | 4.8 | 0.00 | 1.12 | 0.03 | 83 | 1017.0 |
| 20260509124537 | 18 | 58 | 1.6 | 3.2 | 0.00 | 1.12 | 0.03 | 82 | 1017.0 |
| 20260509123518 | 18 | 66 | 3.2 | 6.4 | 0.00 | 1.12 | 0.03 | 83 | 1017.1 |
| 20260509122518 | 18 | 54 | 3.2 | 6.4 | 0.00 | 1.12 | 0.03 | 82 | 1017.1 |
| 20260509121517 | 18 | 54 | 1.6 | 1.6 | 0.00 | 1.12 | 0.03 | 83 | 1017.1 |
| 20260509120518 | 18 | 49 | 1.6 | 4.8 | 0.00 | 1.12 | 0.03 | 81 | 1017.1 |
| 20260509115540 | 18 | 63 | 1.6 | 8.0 | 0.00 | 1.12 | 0.03 | 81 | 1017.1 |
| 20260509114517 | 19 | 56 | 1.6 | 6.4 | 0.00 | 1.12 | 0.03 | 81 | 1017.2 |
| 20260509113518 | 18 | 84 | 1.6 | 3.2 | 0.00 | 1.12 | 0.03 | 82 | 1017.3 |
| 20260509112517 | 18 | 64 | 3.2 | 6.4 | 0.00 | 1.12 | 0.03 | 83 | 1017.2 |
| 20260509111517 | 17 | 79 | 1.6 | 3.2 | 0.00 | 1.12 | 0.03 | 87 | 1017.3 |
| 20260509110517 | 17 | 86 | 3.2 | 6.4 | 0.00 | 1.12 | 0.03 | 85 | 1017.4 |
| 20260509105516 | 17 | 69 | 3.2 | 6.4 | 0.00 | 1.12 | 0.03 | 85 | 1017.4 |
| 20260509104519 | 17 | 82 | 3.2 | 4.8 | 0.00 | 1.12 | 0.03 | 85 | 1017.4 |
| 20260509103519 | 17 | 69 | 1.6 | 3.2 | 0.00 | 1.12 | 0.03 | 85 | 1017.4 |
| 20260509102519 | 17 | 54 | 1.6 | 3.2 | 0.00 | 1.12 | 0.03 | 86 | 1017.4 |
| 20260509101517 | 17 | 51 | 1.6 | 3.2 | 0.00 | 1.12 | 0.03 | 85 | 1017.4 |
| 20260509100519 | 17 | 50 | 3.2 | 4.8 | 0.00 | 1.12 | 0.03 | 85 | 1017.4 |